• în România
  • Lista ţărilor
  • Pe 7 zile
  • Temperatura apei
  • Hartă satelitară
  • Meteo pe hartă
  • Widget-uri
  • user-avatar
    Intrare

    Meteo pe oră la Bambari

    Astăzi, 22 Septembrie, Sâmbătă

    Timp Temperatura Precipitaţii Vânt Presiune Umiditate
    00:00 +26°C° 0 mm 1 m/s 719 mmHg 78%
    01:00 +26°C° 0 mm 1 m/s 719 mmHg 80%
    02:00 +25°C° 0.1 mm 1 m/s 719 mmHg 82%
    03:00 +23°C° 0.1 mm 0 m/s 719 mmHg 84%
    04:00 +23°C° 0.1 mm 0 m/s 719 mmHg 87%
    05:00 +23°C° 0 mm 0 m/s 720 mmHg 85%
    06:00 +26°C° 0 mm 1 m/s 720 mmHg 83%
    07:00 +27°C° 0 mm 1 m/s 721 mmHg 82%
    08:00 +29°C° 1.1 mm 1 m/s 721 mmHg 77%
    09:00 +31°C° 1.1 mm 1 m/s 721 mmHg 71%
    10:00 +33°C° 1.1 mm 1 m/s 721 mmHg 66%
    11:00 +34°C° 0 mm 1 m/s 721 mmHg 59%
    12:00 +34°C° 0 mm 0 m/s 720 mmHg 53%
    13:00 +36°C° 0 mm 0 m/s 720 mmHg 46%
    14:00 +35°C° 0 mm 0 m/s 719 mmHg 49%
    15:00 +34°C° 0 mm 0 m/s 718 mmHg 52%
    16:00 +35°C° 0 mm 1 m/s 718 mmHg 55%
    17:00 +33°C° 0 mm 1 m/s 718 mmHg 59%
    18:00 +29°C° 0 mm 0 m/s 718 mmHg 62%
    19:00 +27°C° 0 mm 0 m/s 719 mmHg 66%
    20:00 +29°C° 0 mm 1 m/s 719 mmHg 68%
    21:00 +28°C° 0 mm 1 m/s 719 mmHg 71%
    22:00 +28°C° 0 mm 1 m/s 719 mmHg 74%
    23:00 +27°C° 1.4 mm 1 m/s 719 mmHg 81%

    Mâine, 23 Septembrie, Duminică

    Timp Temperatura Precipitaţii Vânt Presiune Umiditate
    00:00 +26°C° 1.4 mm 1 m/s 719 mmHg 88%
    01:00 +25°C° 1.4 mm 1 m/s 719 mmHg 95%
    02:00 +24°C° 0.7 mm 1 m/s 719 mmHg 95%
    03:00 +22°C° 0.7 mm 0 m/s 719 mmHg 96%
    04:00 +22°C° 0.7 mm 0 m/s 719 mmHg 97%
    05:00 +25°C° 0.1 mm 1 m/s 720 mmHg 96%
    06:00 +25°C° 0.1 mm 1 m/s 720 mmHg 95%
    07:00 +26°C° 0.1 mm 1 m/s 721 mmHg 94%
    08:00 +27°C° 1 mm 1 m/s 721 mmHg 90%
    09:00 +29°C° 1 mm 1 m/s 721 mmHg 85%
    10:00 +30°C° 1 mm 2 m/s 721 mmHg 81%
    11:00 +31°C° 0.9 mm 1 m/s 721 mmHg 75%
    12:00 +31°C° 0.9 mm 1 m/s 720 mmHg 70%
    13:00 +32°C° 0.9 mm 1 m/s 720 mmHg 65%
    14:00 +32°C° 0.5 mm 1 m/s 719 mmHg 68%
    15:00 +29°C° 0.5 mm 0 m/s 719 mmHg 71%
    16:00 +29°C° 0.5 mm 0 m/s 719 mmHg 74%
    17:00 +29°C° 0 mm 1 m/s 719 mmHg 77%
    18:00 +28°C° 0 mm 1 m/s 719 mmHg 80%
    19:00 +26°C° 0 mm 1 m/s 720 mmHg 83%
    20:00 +26°C° 0 mm 1 m/s 720 mmHg 84%
    21:00 +26°C° 0 mm 1 m/s 720 mmHg 85%
    22:00 +25°C° 0 mm 1 m/s 721 mmHg 86%
    23:00 +25°C° 0 mm 1 m/s 720 mmHg 87%

    Poimâine, 24 Septembrie, Luni

    Timp Temperatura Precipitaţii Vânt Presiune Umiditate
    00:00 +25°C° 0 mm 1 m/s 719 mmHg 87%
    01:00 +24°C° 0 mm 1 m/s 719 mmHg 88%
    02:00 +24°C° 0 mm 1 m/s 719 mmHg 88%
    03:00 +24°C° 0 mm 1 m/s 719 mmHg 88%
    04:00 +22°C° 0 mm 0 m/s 719 mmHg 88%
    05:00 +23°C° 0 mm 0 m/s 720 mmHg 88%
    06:00 +23°C° 0 mm 0 m/s 720 mmHg 88%
    07:00 +23°C° 0 mm 0 m/s 721 mmHg 88%
    08:00 +26°C° 0 mm 0 m/s 722 mmHg 78%
    09:00 +30°C° 0 mm 1 m/s 722 mmHg 69%
    10:00 +33°C° 0 mm 1 m/s 722 mmHg 60%
    11:00 +33°C° 0.3 mm 1 m/s 721 mmHg 59%
    12:00 +34°C° 0.3 mm 1 m/s 721 mmHg 58%
    13:00 +34°C° 0.3 mm 1 m/s 720 mmHg 57%
    14:00 +33°C° 0.3 mm 1 m/s 719 mmHg 60%
    15:00 +32°C° 0.3 mm 1 m/s 719 mmHg 62%
    16:00 +31°C° 0.3 mm 2 m/s 719 mmHg 64%
    17:00 +29°C° 0.3 mm 1 m/s 719 mmHg 73%
    18:00 +28°C° 0.3 mm 1 m/s 719 mmHg 82%
    19:00 +26°C° 0.3 mm 1 m/s 720 mmHg 90%
    20:00 +25°C° 0.2 mm 1 m/s 720 mmHg 91%
    21:00 +25°C° 0.2 mm 1 m/s 721 mmHg 92%
    22:00 +25°C° 0.2 mm 1 m/s 721 mmHg 92%
    23:00 +25°C° 0.1 mm 1 m/s 721 mmHg 93%

    25 Septembrie, Marţi

    Timp Temperatura Precipitaţii Vânt Presiune Umiditate
    00:00 +24°C° 0.1 mm 1 m/s 720 mmHg 94%
    01:00 +24°C° 0.1 mm 1 m/s 720 mmHg 95%
    02:00 +24°C° 0 mm 1 m/s 720 mmHg 95%
    03:00 +24°C° 0 mm 1 m/s 720 mmHg 95%
    04:00 +24°C° 0 mm 1 m/s 720 mmHg 95%
    05:00 +24°C° 0 mm 1 m/s 720 mmHg 94%
    06:00 +25°C° 0 mm 1 m/s 721 mmHg 92%
    07:00 +23°C° 0 mm 0 m/s 722 mmHg 91%
    08:00 +26°C° 0.3 mm 1 m/s 722 mmHg 89%
    09:00 +26°C° 0.3 mm 1 m/s 722 mmHg 87%
    10:00 +27°C° 0.3 mm 1 m/s 722 mmHg 85%
    11:00 +29°C° 0 mm 1 m/s 722 mmHg 75%
    12:00 +31°C° 0 mm 1 m/s 721 mmHg 64%
    13:00 +33°C° 0 mm 1 m/s 720 mmHg 53%
    14:00 +33°C° 0 mm 1 m/s 719 mmHg 58%
    15:00 +32°C° 0 mm 1 m/s 719 mmHg 62%
    16:00 +31°C° 0 mm 1 m/s 719 mmHg 67%
    17:00 +29°C° 0 mm 1 m/s 719 mmHg 71%
    18:00 +28°C° 0 mm 1 m/s 719 mmHg 75%
    19:00 +27°C° 0 mm 1 m/s 720 mmHg 79%
    20:00 +26°C° 0 mm 1 m/s 720 mmHg 81%
    21:00 +26°C° 0 mm 1 m/s 720 mmHg 84%
    22:00 +25°C° 0 mm 1 m/s 721 mmHg 86%
    23:00 +25°C° 0 mm 1 m/s 720 mmHg 87%

    26 Septembrie, Miercuri

    Timp Temperatura Precipitaţii Vânt Presiune Umiditate
    00:00 +24°C° 0 mm 1 m/s 720 mmHg 87%
    01:00 +24°C° 0 mm 1 m/s 719 mmHg 88%
    02:00 +24°C° 0.1 mm 1 m/s 719 mmHg 88%
    03:00 +23°C° 0.1 mm 1 m/s 719 mmHg 89%
    04:00 +23°C° 0.1 mm 1 m/s 720 mmHg 89%
    05:00 +22°C° 0.3 mm 0 m/s 720 mmHg 88%
    06:00 +23°C° 0.3 mm 0 m/s 721 mmHg 87%
    07:00 +23°C° 0.3 mm 0 m/s 722 mmHg 85%
    08:00 +26°C° 0 mm 0 m/s 722 mmHg 76%
    09:00 +29°C° 0 mm 0 m/s 722 mmHg 66%
    10:00 +33°C° 0 mm 0 m/s 722 mmHg 56%
    11:00 +34°C° 0 mm 0 m/s 721 mmHg 53%
    12:00 +34°C° 0 mm 0 m/s 720 mmHg 50%
    13:00 +35°C° 0 mm 0 m/s 719 mmHg 47%
    14:00 +34°C° 0 mm 0 m/s 719 mmHg 52%
    15:00 +32°C° 0 mm 0 m/s 719 mmHg 56%
    16:00 +31°C° 0 mm 0 m/s 719 mmHg 61%
    17:00 +30°C° 0 mm 0 m/s 719 mmHg 63%
    18:00 +28°C° 0 mm 0 m/s 719 mmHg 65%
    19:00 +27°C° 0 mm 0 m/s 720 mmHg 66%
    20:00 +26°C° 0.8 mm 0 m/s 720 mmHg 72%
    21:00 +25°C° 0.8 mm 0 m/s 719 mmHg 77%
    22:00 +24°C° 0.8 mm 0 m/s 719 mmHg 83%
    23:00 +24°C° 0.4 mm 0 m/s 719 mmHg 84%

    27 Septembrie, Joi

    Timp Temperatura Precipitaţii Vânt Presiune Umiditate
    00:00 +23°C° 0.4 mm 0 m/s 719 mmHg 86%
    01:00 +23°C° 0.4 mm 0 m/s 718 mmHg 88%
    02:00 +23°C° 0.4 mm 0 m/s 719 mmHg 90%
    03:00 +22°C° 0.4 mm 0 m/s 719 mmHg 92%
    04:00 +24°C° 0.4 mm 1 m/s 719 mmHg 94%
    05:00 +23°C° 0.3 mm 0 m/s 720 mmHg 93%
    06:00 +23°C° 0.3 mm 0 m/s 721 mmHg 92%
    07:00 +24°C° 0.3 mm 0 m/s 721 mmHg 91%
    08:00 +25°C° 0.4 mm 0 m/s 721 mmHg 89%
    09:00 +28°C° 0.4 mm 1 m/s 721 mmHg 87%
    10:00 +29°C° 0.4 mm 1 m/s 721 mmHg 85%
    11:00 +31°C° 0.1 mm 1 m/s 721 mmHg 74%
    12:00 +31°C° 0.1 mm 0 m/s 720 mmHg 62%
    13:00 +34°C° 0.1 mm 0 m/s 719 mmHg 51%
    14:00 +33°C° 0 mm 0 m/s 719 mmHg 55%
    15:00 +34°C° 0 mm 1 m/s 719 mmHg 58%
    16:00 +32°C° 0 mm 1 m/s 719 mmHg 62%
    17:00 +31°C° 0.1 mm 1 m/s 719 mmHg 68%
    18:00 +29°C° 0.1 mm 1 m/s 720 mmHg 74%
    19:00 +27°C° 0.1 mm 1 m/s 720 mmHg 79%
    20:00 +26°C° 0.5 mm 1 m/s 720 mmHg 83%
    21:00 +26°C° 0.5 mm 1 m/s 720 mmHg 86%
    22:00 +25°C° 0.5 mm 1 m/s 720 mmHg 89%
    23:00 +25°C° 0.1 mm 1 m/s 719 mmHg 90%
    Arată mai mult